Weather History for North Padre Island, TX

Change the Weather History Date:

Friday, October 12, 2012

  Actual Average Record
Temperature  
Mean Temperature 81 °F -  
Max Temperature 82 °F - - ()
Min Temperature 80 °F - - ()
Cooling Degree Days 16    
Growing Degree Days 31 (Base 50)    
Moisture  
Dew Point 74 °F    
Average Humidity 78    
Maximum Humidity 84    
Minimum Humidity 70    
Precipitation  
Precipitation 0.00 in - - ()
Sea Level Pressure  
Sea Level Pressure 30.08 in    
Wind  
Wind Speed 18 mph (ESE)    
Max Wind Speed 23 mph    
Max Gust Speed -    
Visibility 10 miles    
Events      
T = Trace of Precipitation, MM = Missing Value Source: NWS Daily Summary

Daily Weather History Graph

Daily Weather History Graph

Search for Another Location

Airport:

Trip Planner

Search our weather history database for the weather conditions in past years. The results will help you decide how hot, cold, wet, or windy it might be!

Date:

Astronomy

Oct. 12, 2012 Rise Set
Actual Time 7:25 AM CDT 7:01 PM CDT
Civil Twilight 7:02 AM CDT 7:25 PM CDT
Nautical Twilight 6:35 AM CDT 7:52 PM CDT
Astronomical Twilight 6:08 AM CDT 8:18 PM CDT
Moon 4:25 AM CDT (10/12) 5:00 PM CDT (10/12)
Length of Visible Light 12h 22m
Length of Day
11h 35m
Waning Crescent, 10% of the Moon is Illuminated
Oct 12
Waning Crescent
Oct 15
New
Oct 21
First Quarter
Oct 29
Full
Nov 6
Last Quarter

Hourly Weather History & Observations

Time (CDT) Temp. Heat Index Dew Point Humidity Pressure Visibility Wind Dir Wind Speed Gust Speed Precip Events Conditions
12:15 AM 82.4 °F 87.2 °F 71.6 °F 70% 30.09 in 10.0 mi ESE 18.4 mph - N/A   Scattered Clouds
12:35 AM 80.6 °F 84.6 °F 71.6 °F 74% 30.09 in 10.0 mi ESE 18.4 mph - N/A   Partly Cloudy
12:55 AM 82.4 °F 87.2 °F 71.6 °F 70% 30.08 in 10.0 mi ESE 17.3 mph - N/A   Clear
1:15 AM 82.4 °F 88.2 °F 73.4 °F 74% 30.08 in 10.0 mi ESE 16.1 mph - N/A   Partly Cloudy
1:35 AM 82.4 °F 88.2 °F 73.4 °F 74% 30.08 in 10.0 mi ESE 15.0 mph - N/A   Partly Cloudy
1:55 AM 80.6 °F 85.4 °F 73.4 °F 79% 30.08 in 10.0 mi ESE 17.3 mph - N/A   Partly Cloudy
2:55 AM 82.4 °F 88.2 °F 73.4 °F 74% 30.07 in 10.0 mi East 15.0 mph - N/A   Partly Cloudy
3:15 AM 80.6 °F 85.4 °F 73.4 °F 79% 30.07 in 10.0 mi ESE 17.3 mph - N/A   Scattered Clouds
3:35 AM 80.6 °F 85.4 °F 73.4 °F 79% 30.07 in 10.0 mi ESE 16.1 mph - N/A   Scattered Clouds
3:55 AM 80.6 °F 85.4 °F 73.4 °F 79% 30.06 in 10.0 mi ESE 16.1 mph - N/A   Scattered Clouds
4:15 AM 82.4 °F 88.2 °F 73.4 °F 74% 30.06 in 10.0 mi ESE 17.3 mph - N/A   Scattered Clouds
4:35 AM 82.4 °F 88.2 °F 73.4 °F 74% 30.05 in 10.0 mi ESE 15.0 mph - N/A   Partly Cloudy
4:55 AM 82.4 °F 89.5 °F 75.2 °F 79% 30.05 in 10.0 mi ESE 13.8 mph - N/A   Partly Cloudy
5:15 AM 82.4 °F 88.2 °F 73.4 °F 74% 30.05 in 10.0 mi East 16.1 mph - N/A   Partly Cloudy
5:35 AM 82.4 °F 88.2 °F 73.4 °F 74% 30.06 in 10.0 mi East 15.0 mph - N/A   Partly Cloudy
5:55 AM 82.4 °F 89.5 °F 75.2 °F 79% 30.06 in 10.0 mi East 17.3 mph - N/A   Partly Cloudy
6:15 AM 82.4 °F 88.2 °F 73.4 °F 74% 30.07 in 10.0 mi ESE 17.3 mph - N/A   Partly Cloudy
6:35 AM 82.4 °F 89.5 °F 75.2 °F 79% 30.07 in 10.0 mi ESE 17.3 mph - N/A   Partly Cloudy
6:55 AM 82.4 °F 89.5 °F 75.2 °F 79% 30.08 in 10.0 mi ESE 17.3 mph - N/A   Clear
7:15 AM 80.6 °F 86.2 °F 75.2 °F 84% 30.08 in 10.0 mi SE 15.0 mph - N/A   Mostly Cloudy
7:35 AM 80.6 °F 86.2 °F 75.2 °F 84% 30.09 in 9.0 mi SE 16.1 mph - N/A   Unknown
7:55 AM 82.4 °F 89.5 °F 75.2 °F 79% 30.09 in 9.0 mi ESE 16.1 mph - N/A   Mostly Cloudy
8:15 AM 82.4 °F 89.5 °F 75.2 °F 79% 30.10 in 9.0 mi ESE 17.3 mph - N/A   Mostly Cloudy
8:35 AM 82.4 °F 89.5 °F 75.2 °F 79% 30.10 in 10.0 mi ESE 17.3 mph - N/A   Mostly Cloudy
8:55 AM 82.4 °F 89.5 °F 75.2 °F 79% 30.11 in 9.0 mi ESE 17.3 mph - N/A   Mostly Cloudy
9:15 AM 82.4 °F 89.5 °F 75.2 °F 79% 30.12 in 10.0 mi ESE 17.3 mph - N/A   Mostly Cloudy
9:55 AM - - - N/A% 30.13 in - North - - N/A   Unknown
10:15 AM 82.4 °F 89.5 °F 75.2 °F 79% 30.14 in 9.0 mi East 18.4 mph - N/A   Unknown
10:35 AM 82.4 °F 89.5 °F 75.2 °F 79% 30.14 in 9.0 mi East 19.6 mph - N/A   Scattered Clouds
10:55 AM 82.4 °F 89.5 °F 75.2 °F 79% 30.13 in 10.0 mi East 19.6 mph - N/A   Partly Cloudy
11:15 AM 82.4 °F 89.5 °F 75.2 °F 79% 30.13 in 9.0 mi ESE 19.6 mph - N/A   Partly Cloudy
11:35 AM 82.4 °F 89.5 °F 75.2 °F 79% 30.13 in 10.0 mi ESE 18.4 mph - N/A   Partly Cloudy
11:55 AM 82.4 °F 89.5 °F 75.2 °F 79% 30.13 in 9.0 mi ESE 18.4 mph - N/A   Scattered Clouds
12:15 PM 82.4 °F 89.5 °F 75.2 °F 79% 30.12 in 10.0 mi ESE 18.4 mph - N/A   Mostly Cloudy
12:55 PM 82.4 °F 89.5 °F 75.2 °F 79% 30.11 in 9.0 mi ESE 19.6 mph - N/A   Partly Cloudy
1:35 PM 82.4 °F 89.5 °F 75.2 °F 79% 30.09 in 9.0 mi ESE 17.3 mph - N/A   Mostly Cloudy
2:35 PM 82.4 °F 89.5 °F 75.2 °F 79% 30.07 in 9.0 mi ESE 19.6 mph - N/A   Scattered Clouds
3:15 PM 82.4 °F 89.5 °F 75.2 °F 79% 30.06 in 9.0 mi ESE 19.6 mph - N/A   Scattered Clouds
3:50 PM 82.4 °F 89.5 °F 75.2 °F 79% 30.05 in 9.0 mi East 18.4 mph - N/A   Scattered Clouds
4:15 PM 82.4 °F 89.5 °F 75.2 °F 79% 30.05 in 8.0 mi East 16.1 mph - N/A   Unknown
4:35 PM 82.4 °F 89.5 °F 75.2 °F 79% 30.05 in 9.0 mi ESE 17.3 mph - N/A   Scattered Clouds
4:55 PM 82.4 °F 89.5 °F 75.2 °F 79% 30.05 in 9.0 mi East 19.6 mph - N/A   Mostly Cloudy
5:15 PM 82.4 °F 89.5 °F 75.2 °F 79% 30.05 in 9.0 mi East 18.4 mph - N/A   Mostly Cloudy
5:35 PM 82.4 °F 89.5 °F 75.2 °F 79% 30.05 in 9.0 mi East 16.1 mph - N/A   Scattered Clouds
6:15 PM 82.4 °F 89.5 °F 75.2 °F 79% 30.05 in 9.0 mi East 16.1 mph - N/A   Unknown
6:35 PM 82.4 °F 89.5 °F 75.2 °F 79% 30.05 in 9.0 mi East 18.4 mph - N/A   Mostly Cloudy
6:55 PM 82.4 °F 89.5 °F 75.2 °F 79% 30.06 in 9.0 mi East 19.6 mph - N/A   Mostly Cloudy
7:15 PM 82.4 °F 89.5 °F 75.2 °F 79% 30.06 in 9.0 mi East 19.6 mph - N/A   Scattered Clouds
7:35 PM 82.4 °F 89.5 °F 75.2 °F 79% 30.06 in 10.0 mi East 19.6 mph - N/A   Mostly Cloudy
8:15 PM 82.4 °F 89.5 °F 75.2 °F 79% 30.07 in 10.0 mi East 20.7 mph - N/A   Partly Cloudy
8:35 PM 82.4 °F 89.5 °F 75.2 °F 79% 30.08 in 10.0 mi East 20.7 mph - N/A   Clear
8:55 PM 82.4 °F 89.5 °F 75.2 °F 79% 30.08 in 10.0 mi East 19.6 mph - N/A   Clear
9:15 PM 82.4 °F 89.5 °F 75.2 °F 79% 30.08 in 10.0 mi East 21.9 mph - N/A   Partly Cloudy
9:35 PM 82.4 °F 88.2 °F 73.4 °F 74% 30.08 in 10.0 mi East 21.9 mph - N/A   Clear
9:55 PM 82.4 °F 88.2 °F 73.4 °F 74% 30.09 in 10.0 mi East 21.9 mph - N/A   Clear
10:15 PM 82.4 °F 88.2 °F 73.4 °F 74% 30.09 in 10.0 mi East 23.0 mph - N/A   Clear
10:35 PM 82.4 °F 88.2 °F 73.4 °F 74% 30.08 in 10.0 mi East 21.9 mph - N/A   Partly Cloudy
11:35 PM 82.4 °F 88.2 °F 73.4 °F 74% 30.09 in 10.0 mi East 20.7 mph - N/A   Partly Cloudy
11:55 PM 82.4 °F 87.2 °F 71.6 °F 70% 30.09 in 10.0 mi East 23.0 mph - N/A   Partly Cloudy